Tracking 28908 objects as of 21-May-2024
HD Live streaming from Space Station
objects crossing your sky now

STARLINK-5716

Track STARLINK-5716 now!
10-day predictions
STARLINK-5716 is classified as:


NORAD ID: 56504
Int'l Code: 2023-065B
Perigee: 565.2 km
Apogee: 567.2 km
Inclination: 43.0 °
Period: 95.8 minutes
Semi major axis: 6937 km
RCS: Unknown
Launch date: May 14, 2023
Source: United States (US)
Launch site: AIR FORCE EASTERN TEST RANGE (AFETR)
Your satellite tracking list
Your tracking list is empty




NASA's NSSDC Master Catalog

Two Line Element Set (TLE):
1 56504U 23065B   24141.51071013  .00023485  00000-0  17474-2 0  9993
2 56504  43.0017 187.0423 0001453 278.6603  81.4075 15.02543511 56831
Source of the keplerian elements: AFSPC